Theta_e
320 319 318 318 318 317 317 317 317 317 317 317 317 317 317 317 317 317 317 318 317 317 318 318 319 320 317 310 308 328 345 342 322 315 313 322 323 319 315 320 331 327 331 333 337 336 334
320 319 318 318 318 317 317 317 317 317 317 317 316 316 316 316 317 317 317 317 317 316 317 318 319 320 311 301 327 329 322 320 312 311 316 325 325 319 318 320 326 327 327 331 334 333 334
321 318 318 318 317 318 318 317 317 317 317 317 316 317 317 317 317 317 316 316 316 316 317 319 319 318 311 309 328 326 319 311 308 311 320 328 329 316 316 316 330 326 321 328 331 332 329
321 319 318 317 317 317 317 318 317 318 317 316 317 317 318 316 317 316 315 315 315 317 318 319 319 314 307 318 320 322 318 314 312 314 322 327 323 315 312 317 325 323 325 316 329 331 331
321 320 318 317 317 318 318 318 318 318 317 316 316 316 316 316 316 316 315 315 316 319 324 322 313 311 310 327 316 319 318 313 311 315 318 326 319 309 310 305 303 317 311 316 323 331 328
321 320 319 317 317 318 318 318 318 317 317 317 317 316 316 317 316 315 314 314 317 318 320 318 316 308 314 314 318 318 320 316 312 314 316 316 307 302 303 300 296 304 310 315 316 324 323
322 320 318 317 318 318 318 318 318 317 317 316 316 315 316 316 316 314 311 314 310 311 314 304 307 313 312 319 318 316 321 317 315 313 304 307 299 296 301 305 307 311 313 314 317 322 320
322 321 319 318 318 318 318 318 317 316 316 317 316 315 316 315 314 313 309 310 314 308 302 312 310 312 315 315 311 316 319 309 308 303 306 302 298 304 307 308 307 309 309 314 318 322 321
321 321 319 318 318 318 317 317 317 317 316 316 315 315 314 314 313 308 310 313 319 311 300 306 312 310 310 313 310 310 313 310 305 303 303 300 303 309 305 305 305 306 303 314 314 319 322
321 320 319 317 317 317 317 317 317 317 316 316 315 316 314 312 309 313 310 317 318 312 294 302 306 310 311 314 308 316 315 310 306 302 304 302 308 306 304 303 304 297 309 315 316 313 305
322 320 319 317 317 317 317 316 316 316 316 316 316 316 314 312 307 307 313 312 311 307 287 306 306 314 308 307 309 309 316 310 303 303 302 300 304 303 302 304 306 302 318 318 316 311 312
322 321 320 318 317 317 316 316 316 316 316 316 315 314 313 311 310 311 316 318 310 293 290 301 305 304 303 306 308 311 311 312 310 306 304 304 309 307 305 308 308 310 311 312 310 307 299
322 321 320 318 316 316 316 316 316 315 315 314 313 312 310 316 310 318 318 310 294 290 305 301 300 302 302 302 304 305 305 302 299 295 297 301 303 307 308 303 306 306 302 295 297 296 296
321 321 320 318 316 316 316 316 316 315 315 313 310 309 311 315 316 318 315 303 293 298 298 304 303 304 299 302 302 305 302 299 305 304 298 294 293 303 308 302 301 302 300 294 294 293 296
321 321 320 319 316 315 316 316 315 315 314 312 309 314 315 317 318 317 308 297 297 299 303 302 302 297 296 302 300 303 301 300 304 306 298 296 297 307 308 308 306 304 299 304 299 299 295
321 321 320 319 316 315 316 316 315 315 313 311 309 312 311 322 322 314 303 296 300 305 305 303 295 298 294 298 298 300 300 305 304 308 305 304 294 305 307 310 310 307 306 296 297 293 290
321 320 320 319 316 315 316 316 315 314 312 310 312 308 317 321 320 309 298 299 304 306 305 301 299 297 297 298 300 299 300 305 305 305 305 303 298 301 306 301 301 302 299 300 299 297 294
320 320 320 319 316 315 317 316 314 312 310 311 311 305 320 315 306 306 300 304 305 303 305 302 304 301 300 301 300 300 300 303 306 304 300 302 298 295 297 302 309 304 301 300 294 293 300
320 320 320 319 316 316 317 316 313 312 311 310 309 310 312 312 301 300 304 304 303 303 303 303 302 304 303 299 298 301 302 307 306 303 301 300 298 293 295 296 299 297 301 299 298 299 300
320 320 320 319 316 316 317 315 313 312 312 309 311 305 308 309 308 304 301 301 298 303 304 305 304 304 302 300 300 300 301 305 306 303 315 308 298 296 291 293 296 296 300 301 298 295 300
320 319 320 319 316 316 317 315 314 313 311 309 313 301 307 299 300 302 302 302 300 299 304 305 305 305 302 297 300 299 303 301 304 308 303 300 295 295 299 302 299 299 300 301 296 305 299
318 318 320 320 316 316 317 316 315 313 311 317 309 306 309 303 305 302 300 298 298 299 300 300 300 303 304 300 300 298 301 301 298 302 299 301 295 297 295 301 299 297 301 302 301 309 306
317 318 320 319 315 316 317 316 315 313 311 317 318 316 313 305 304 299 297 299 299 304 302 303 302 302 301 303 304 303 303 302 302 301 299 298 297 294 289 298 298 291 297 298 298 308 310
317 318 320 318 315 315 317 317 316 314 312 313 319 314 311 304 301 300 302 303 302 303 300 301 303 303 304 307 305 303 301 299 303 301 302 298 296 294 291 295 284 294 301 302 300 309 313
318 318 319 318 315 315 316 317 317 316 313 312 318 315 312 305 303 303 303 302 303 304 302 301 304 305 305 301 296 294 292 293 297 299 298 299 297 293 289 287 294 299 300 299 298 308 314
318 318 318 319 315 314 316 317 317 316 314 314 318 321 316 310 302 307 304 306 303 302 303 303 306 306 304 298 296 290 290 297 295 296 295 297 299 293 292 290 287 295 302 305 303 301 312
317 317 317 318 315 313 315 316 317 317 315 313 316 325 316 309 309 308 306 305 307 305 303 304 303 302 304 299 296 294 293 301 292 293 291 291 293 289 289 289 296 301 302 303 292 296 313
315 316 317 318 316 313 314 315 317 317 316 314 316 323 316 311 312 311 312 308 307 306 303 305 302 302 299 296 297 297 296 297 294 297 294 293 290 290 290 287 288 306 302 298 303 306 308
315 316 316 317 316 313 313 314 316 316 316 315 318 325 325 316 312 317 315 315 314 312 308 306 304 305 302 301 300 300 297 297 295 289 300 292 297 294 296 296 303 307 305 307 307 305 306
Wind_Speed
15 15 15 15 15 15 16 16 16 16 16 17 17 17 17 17 15 14 15 15 15 14 13 12 11 10 7 5 11 7 12 11 7 5 13 14 15 11 14 9 19 17 10 7 16 18 16
16 16 16 16 16 16 16 16 16 16 16 15 17 17 17 17 17 16 16 15 14 14 13 13 9 8 4 6 5 13 11 9 9 10 12 14 11 11 10 15 7 3 2 11 14 17 19
14 17 17 16 16 15 16 16 16 16 17 16 17 17 17 17 18 17 16 15 15 14 13 11 6 5 5 16 12 12 11 7 8 11 9 16 19 10 7 14 8 4 7 7 16 19 18
14 16 18 17 17 16 15 15 17 16 17 17 17 16 16 17 16 16 16 15 15 14 12 9 4 4 9 11 15 10 10 9 10 10 16 14 13 10 7 7 3 7 7 5 14 17 14
15 15 17 17 17 16 16 16 17 16 17 18 18 17 16 16 15 13 13 13 14 11 9 8 5 4 9 4 9 7 10 11 10 9 16 19 11 5 9 6 6 8 6 15 14 9 18
15 15 16 18 17 16 16 16 17 17 17 17 16 17 16 13 13 12 15 14 8 8 4 8 9 4 8 12 8 11 10 13 12 12 14 13 1 1 6 4 8 6 8 2 9 2 10
17 17 18 18 18 17 17 17 17 18 17 18 17 17 14 12 11 9 11 3 2 3 7 10 9 7 2 9 9 9 12 12 12 8 7 7 4 8 11 12 16 12 11 8 7 8 7
17 17 17 17 17 17 17 18 17 19 19 18 17 16 14 11 10 8 4 5 10 7 6 18 18 17 19 6 9 9 8 6 8 8 9 4 8 12 15 19 19 18 13 11 6 4 9
19 17 17 17 17 17 18 18 17 16 18 18 18 18 16 12 13 4 7 12 14 10 4 13 14 12 13 11 10 9 10 9 8 8 8 9 12 18 19 17 17 15 9 15 12 10 11
19 17 17 17 17 17 17 18 19 18 16 16 17 14 15 16 4 5 11 16 17 6 3 7 10 10 5 9 6 13 10 8 6 11 10 11 20 16 17 14 12 8 9 11 21 10 5
15 19 17 17 18 18 18 18 19 20 19 16 14 13 10 3 9 5 10 6 6 3 4 13 12 6 5 6 5 11 14 10 11 10 7 11 14 14 15 15 12 12 10 15 22 18 9
16 18 18 17 18 18 19 19 20 20 21 18 15 12 10 4 4 14 16 16 3 2 3 4 6 7 10 10 13 10 11 9 11 11 11 14 13 15 9 14 12 9 7 7 3 5 1
16 17 18 17 18 18 19 20 20 20 21 21 17 9 6 7 6 11 10 4 2 4 17 13 6 2 7 8 13 10 11 10 7 4 7 11 17 11 9 6 6 6 2 3 1 3 7
16 16 16 17 17 18 19 20 21 21 20 20 20 16 10 9 8 10 10 4 4 3 7 7 8 19 10 10 11 14 9 8 14 13 6 7 7 13 4 4 7 7 6 6 8 6 7
17 16 16 17 17 18 19 19 20 22 21 19 27 3 4 7 14 5 1 5 5 1 6 7 18 6 4 4 6 13 9 10 13 11 5 3 10 8 8 7 9 8 8 10 4 7 3
17 17 16 17 17 18 19 20 21 24 24 19 4 3 7 15 6 3 7 1 4 8 8 11 9 7 7 10 9 19 12 10 3 9 5 1 5 12 11 4 0 2 4 6 2 4 4
17 16 16 17 17 18 18 19 20 23 28 16 4 2 6 9 10 7 3 4 8 7 2 6 5 4 7 7 7 4 7 21 13 8 11 7 4 9 8 4 4 2 4 2 1 1 5
16 15 16 16 17 18 19 19 19 20 26 2 5 3 7 3 7 2 8 7 8 9 5 4 6 8 5 11 8 3 5 9 14 8 5 3 4 6 7 4 7 6 6 4 5 5 3
16 16 17 15 18 18 18 19 18 14 12 7 3 5 2 3 6 5 4 7 8 3 8 3 4 3 4 2 7 7 8 10 8 7 3 6 5 5 6 1 5 5 8 7 3 2 5
15 17 17 15 17 19 19 20 18 16 10 3 3 4 3 2 2 2 2 5 7 1 4 3 7 4 7 2 2 4 7 10 4 5 1 5 3 4 4 4 3 4 5 7 2 5 6
15 16 16 14 16 18 19 20 21 22 16 3 3 2 2 4 6 6 7 7 9 4 4 2 2 1 5 6 6 3 5 4 6 3 3 5 3 6 9 8 9 9 9 9 1 11 8
14 17 16 14 14 16 18 19 19 24 28 2 3 4 7 2 5 4 4 5 11 9 8 9 7 9 8 6 5 3 4 6 0 5 1 2 1 9 8 6 6 9 6 6 6 13 10
15 15 14 13 15 17 18 19 19 19 18 4 5 6 3 6 5 7 5 6 8 3 5 8 9 9 13 7 6 7 10 9 6 4 5 3 4 3 6 11 7 6 8 7 5 8 14
14 14 13 13 14 16 18 19 19 15 11 2 4 6 3 4 8 6 9 11 10 8 5 8 9 7 3 4 6 7 11 3 6 10 5 3 2 2 3 7 3 3 10 9 2 12 18
12 13 14 11 11 13 15 17 18 17 16 2 3 4 4 6 6 6 10 6 6 4 6 6 6 3 5 4 2 1 3 0 3 4 6 6 4 2 3 2 8 4 5 5 5 10 20
13 13 13 11 11 13 14 16 17 17 17 3 4 2 2 4 6 9 6 5 3 4 4 7 5 3 5 2 1 2 4 6 5 4 3 7 1 5 4 1 6 1 8 12 4 6 17
12 13 13 11 10 12 15 16 16 16 15 4 4 2 2 3 4 6 5 4 5 4 4 5 4 4 3 3 2 3 2 4 3 4 2 2 3 2 5 4 4 0 5 8 5 4 14
11 12 12 10 9 10 12 15 15 14 14 7 6 3 3 3 5 5 4 3 3 4 4 2 1 2 1 1 3 1 3 1 4 6 4 0 4 3 2 1 2 6 5 5 3 8 14
12 12 11 10 7 9 9 11 14 14 13 10 3 5 1 2 4 9 5 7 6 7 3 2 2 2 1 4 3 3 2 1 4 3 2 2 4 2 4 3 1 6 7 7 8 8 9
Wind_Direction
358 357 352 348 345 344 342 340 338 333 331 327 324 321 319 318 315 313 310 309 308 305 303 304 310 319 310 226 250 140 125 138 158 205 212 232 254 225 232 239 138 179 221 85 143 139 132
355 353 348 345 344 341 339 336 335 333 331 326 322 319 317 315 313 311 307 305 302 301 300 296 296 308 240 252 125 146 164 159 188 195 214 232 253 237 258 260 148 105 227 169 141 135 133
352 351 347 344 342 340 338 337 332 328 327 325 321 318 314 311 309 308 307 303 300 301 297 289 276 251 264 246 137 165 165 183 200 188 218 233 248 263 271 280 131 80 355 7 170 137 135
349 350 349 345 344 340 336 332 332 329 324 326 322 316 313 311 309 309 306 301 300 298 286 269 244 242 257 235 238 186 176 180 211 192 234 251 252 266 277 280 35 195 64 322 143 134 146
347 347 348 347 344 341 335 330 329 325 330 329 326 324 319 314 313 308 301 297 295 289 294 188 205 243 260 196 191 198 156 180 199 200 233 254 254 264 313 289 301 188 184 212 155 166 155
343 344 347 346 342 337 331 330 327 330 332 329 326 325 320 314 310 312 304 287 283 305 208 193 265 252 249 221 194 225 183 178 184 208 233 243 139 340 293 280 231 233 206 282 101 169 47
344 343 346 345 341 334 332 331 329 331 331 333 330 325 319 316 311 317 322 219 171 200 237 208 186 232 228 220 174 197 201 188 176 203 207 236 105 219 243 250 250 258 216 165 152 107 90
347 341 340 341 337 334 332 330 330 336 332 330 329 326 321 321 315 313 289 252 261 287 289 221 251 256 256 232 182 177 203 175 178 196 203 155 217 233 227 243 249 255 267 73 36 132 55
348 341 339 339 338 335 331 328 328 328 332 332 330 329 327 325 320 274 217 259 291 295 288 287 219 243 260 160 176 199 166 214 198 204 197 220 230 223 242 238 247 246 255 182 158 137 116
346 342 338 338 338 335 331 329 328 325 323 319 327 321 326 325 319 309 264 258 248 320 306 263 171 242 227 162 211 188 185 208 190 202 213 220 249 229 234 246 237 244 252 188 133 141 181
335 341 335 337 337 335 332 331 328 327 325 322 321 316 311 325 318 290 279 334 328 356 275 144 174 206 219 199 206 180 171 232 235 191 192 247 241 248 222 242 231 243 143 151 162 186 112
333 339 336 335 336 335 333 331 330 328 325 324 323 318 320 184 213 242 277 291 332 275 310 221 122 166 207 203 246 174 167 224 252 259 223 235 250 244 229 238 235 259 187 167 91 83 92
335 332 334 330 333 334 334 333 330 328 325 322 316 298 278 308 244 296 299 288 285 33 338 342 13 168 221 198 225 207 171 209 229 226 253 230 248 253 249 234 281 286 180 277 273 155 225
331 330 331 328 331 334 335 331 328 327 325 320 308 303 220 220 244 278 299 341 34 207 275 288 290 297 226 212 229 181 169 201 239 250 254 210 253 248 210 222 228 251 196 175 206 191 216
329 328 331 328 331 333 333 332 330 326 327 323 310 205 232 237 220 241 313 62 213 247 277 304 318 317 197 127 18 346 213 210 225 238 193 282 225 237 171 194 223 287 229 229 294 273 143
326 328 329 328 329 332 334 333 333 330 329 327 292 273 262 253 189 103 59 242 222 208 248 281 297 32 14 27 37 18 358 224 27 20 341 329 323 298 188 149 330 110 314 4 353 282 72
323 328 325 325 326 331 332 337 337 334 329 342 245 277 246 188 73 55 106 249 245 234 51 303 303 95 38 46 80 66 343 303 9 350 343 69 351 293 132 163 133 322 303 296 89 237 140
320 324 320 323 325 331 335 338 340 339 335 20 305 292 255 146 86 129 226 205 237 147 100 283 27 32 39 74 48 138 185 273 331 322 23 352 264 281 236 275 181 244 250 220 137 300 86
319 325 324 325 328 333 334 335 337 340 3 311 279 254 186 141 124 227 235 231 42 347 180 260 146 148 68 127 126 152 235 279 294 28 46 351 312 346 302 145 278 236 263 271 291 67 178
324 332 329 328 331 330 337 337 339 336 337 282 287 298 332 37 113 23 46 132 131 44 352 4 325 148 115 144 207 212 246 199 291 32 263 150 329 150 213 259 320 219 253 271 238 63 70
327 331 326 328 333 336 337 339 341 337 335 215 243 316 331 21 358 66 9 6 80 85 19 321 197 323 66 46 5 272 348 195 218 164 296 103 338 336 250 262 343 341 215 249 224 137 132
326 330 326 329 331 333 337 341 349 346 339 260 312 12 345 144 240 122 93 32 56 31 7 23 11 10 113 119 148 301 354 1 303 159 197 351 276 325 324 337 347 342 304 213 8 107 118
332 330 331 332 338 338 340 341 351 3 345 345 324 339 0 271 294 82 50 44 77 9 76 36 356 23 57 50 350 311 316 302 13 28 347 81 98 247 285 321 330 351 352 46 18 88 128
330 327 330 337 341 341 342 341 348 7 17 262 279 324 319 301 74 57 82 64 51 31 65 58 3 38 21 287 273 264 268 28 18 333 352 50 24 26 314 345 306 293 20 353 78 109 106
319 320 326 329 337 338 340 340 345 353 359 282 288 9 323 312 117 127 109 114 142 201 87 67 44 344 280 289 307 291 281 47 247 249 354 1 349 18 162 314 295 348 22 6 57 100 124
316 316 323 322 337 339 343 341 344 350 355 308 283 349 309 304 28 75 122 194 226 196 150 120 108 318 313 273 264 22 29 353 10 109 44 342 297 108 346 9 206 299 12 346 342 120 127
318 312 316 318 331 340 339 342 344 348 354 333 290 319 311 315 17 17 25 27 29 349 119 123 149 191 228 287 62 74 4 341 322 346 162 36 355 198 265 244 92 285 20 320 65 260 151
311 302 306 318 318 336 342 337 339 342 356 1 279 279 52 326 300 7 40 23 9 3 67 209 143 257 266 28 42 90 100 190 336 321 336 274 152 237 275 13 78 349 23 66 182 40 76
306 304 302 312 310 324 334 341 335 335 353 347 293 335 313 209 268 310 344 12 24 27 33 293 123 269 73 56 45 114 43 42 170 284 296 11 115 151 101 133 64 55 98 61 65 73 68